Location: Unspecified
(51.0950°N, 12.9690°E)
Time: 21:34:48
(UTC+00:00)

CUBEBUG 2 - Visible Passes

Search period start: 24 April 2024 00:00
Search period end: 04 May 2024 00:00
Orbit: 570 x 672 km, 97.8° (Epoch: 24 April)

Date Brightness Start Highest point End Pass type
(mag) Time Alt. Az. Time Alt. Az. Time Alt. Az.
24 Apr ? 00:29:47 10° NE 00:33:01 22° E 00:34:12 20° ESE visible
24 Apr ? 02:05:29 10° N 02:09:22 43° WNW 02:11:23 24° SW visible
25 Apr ? 00:47:00 10° NNE 00:50:42 32° E 00:52:03 26° SE visible
25 Apr ? 02:23:14 10° N 02:26:50 30° WNW 02:29:15 17° WSW visible
26 Apr ? 01:04:21 10° NNE 01:08:20 47° E 01:09:53 31° SSE visible
26 Apr ? 02:41:05 10° NNW 02:44:15 22° WNW 02:47:05 12° WSW visible
27 Apr ? 01:21:47 10° NNE 01:25:55 72° ESE 01:27:42 33° S visible
27 Apr ? 02:59:05 10° NNW 03:01:36 16° WNW 03:04:07 10° W visible
28 Apr ? 00:04:47 10° ENE 00:06:45 13° E 00:08:19 11° ESE visible
28 Apr ? 01:39:17 10° NNE 01:43:24 78° WNW 01:45:30 29° SSW visible
29 Apr ? 00:21:26 10° NE 00:24:26 19° E 00:26:06 15° ESE visible
29 Apr ? 01:56:50 10° N 02:00:52 52° WNW 02:03:17 23° SW visible
30 Apr ? 00:38:28 10° NE 00:42:02 27° E 00:43:52 20° SE visible
30 Apr ? 02:14:27 10° N 02:18:15 36° WNW 02:21:02 17° SW visible
01 May ? 00:55:39 10° NNE 00:59:35 39° E 01:01:36 24° SSE visible
01 May ? 02:32:09 10° N 02:35:35 26° WNW 02:38:47 12° WSW visible
02 May ? 01:12:56 10° NNE 01:17:04 59° E 01:19:19 26° S visible
02 May ? 02:49:55 10° NNW 02:52:52 19° WNW 02:55:50 10° WSW visible
02 May ? 23:56:35 10° ENE 23:57:45 11° E 23:58:55 10° ESE visible
03 May ? 01:30:18 10° NNE 01:34:30 87° ESE 01:37:01 24° SSW visible
